[Iaude] MPEC J184: 2014 EH216 = 2024 FT15
    mpec at cfa.harvard.edu 
    mpec at cfa.harvard.edu
       
    Wed May  8 14:25:30 EDT 2024
    
    
  
M.P.E.C. 2024-J184                                  Issued 2024 May 8, 18:20 UT
     The Minor Planet Electronic Circulars contain information on unusual
         minor planets, routine data on comets and natural satellites,
         and occasional editorial announcements.  They are published
    on behalf of Division F of the International Astronomical Union by the
          Minor Planet Center, Smithsonian Astrophysical Observatory,
                          Cambridge, MA 02138, U.S.A.
			  
             Prepared using the Tamkin Foundation Computer Network
                              MPC at CFA.HARVARD.EDU
            URL https://www.minorplanetcenter.net/    ISSN 1523-6714
                             2014 EH216 = 2024 FT15                             
                           Revision to MPEC 2024-J81
Orbital elements:
2014 EH216 = 2024 FT15                                   Earth MOID = 0.1985 AU
Id. P. VanWylen
Epoch 2024 Mar. 31.0 TT = JDT 2460400.5                 Veres                   
M 334.80644              (2000.0)            P               Q                  
n   0.49478620     Peri.  295.48463     -0.60182206     +0.79548255             
a   1.5831583      Node   297.33146     -0.70111526     -0.56872790             
e   0.2454293      Incl.    4.57347     -0.38242333     -0.20917956             
P   1.99           H   22.91          G   0.15           U   1                  
Residuals in seconds of arc
140304 W84  0.1+  0.7+    240319 F51  0.2-  0.1-    240503 291  0.0   0.0
140304 W84  0.0   1.2+    240319 F51  0.0   0.0     240503 291  0.0   0.0
140304 W84  0.4+  0.6-    240319 T12  0.0   0.0     240503 291  0.5+  0.2-
140304 W84  0.3+  0.6-    240319 T12  0.0   0.0     240503 F51  0.0   0.1+
140305 W84  0.2-  1.1-    240319 F51  0.0   0.0     240503 F51  0.0   0.1-
140305 W84  0.2+  0.2-    240502 F51  0.1-  0.1-    240504 F51  0.2+  0.2+
140305 W84  0.3-  0.1+    240502 F51  0.1-  0.1-    240504 F51  0.1+  0.1+
140305 W84  0.5-  0.4+    240502 F51  0.1-  0.1-
240319 F51  0.1+  0.1+    240502 F51  0.1-  0.0
Ephemeris:
2014 EH216               a,e,i = 1.58, 0.25, 5                   q = 1.1946
Date    TT    R. A. (2000) Decl.     Delta      r    Elong.  Phase     V
2024 04 08    12 13 53.0 -26 10 52   0.2542  1.2394   157.1    18.3    21.3
...
2024 04 23    12 07 27.8 -27 21 11   0.2360  1.2141   149.1    25.1    21.4
...
2024 05 01    12 09 24.1 -27 23 45   0.2329  1.2046   144.4    29.1    21.4
...
2024 05 07    12 13 58.2 -27 14 43   0.2332  1.1995   141.1    31.9    21.5
2024 05 08    12 15 00.3 -27 12 33   0.2335  1.1988   140.6    32.3    21.5
2024 05 09    12 16 07.3 -27 10 15   0.2338  1.1982   140.1    32.7    21.5
...
2024 05 15    12 24 28.1 -26 54 15   0.2367  1.1955   137.2    35.0    21.6
...
2024 05 23    12 39 44.2 -26 29 46   0.2436  1.1947   134.0    37.5    21.7
...
2024 06 07    13 18 34.2 -25 40 13   0.2660  1.2020   129.6    40.6    22.0
M. P. C. Staff               (C) Copyright 2024 MPC           M.P.E.C. 2024-J184
    
    
More information about the Iaude
mailing list